Theta_e
346 345 344 344 345 344 342 340 339 338 336 334 330 328 328 329 330 331 332 333 333 333 332 332 331 330 330 331 334 336 336 337 337 339 340 340 338 338 339 339 340 341 341 340 338 338 337 334 335 339 340 340 340 339 339 340 339 338 338 340 341 343 343 344 343 343 343 343 342 340 340 341 342 343 344 345 346 346 345 344 344 343 343 342 343
345 344 344 343 343 342 340 340 339 337 335 332 330 330 330 332 333 334 337 339 340 340 340 339 338 337 338 339 341 342 342 341 341 341 342 342 340 340 340 340 341 341 341 340 340 340 337 334 335 338 339 340 341 341 342 341 340 339 340 341 342 342 343 344 343 344 344 342 342 341 342 343 345 346 345 346 346 345 344 344 343 343 343 343 343
344 344 344 343 342 341 340 339 337 335 332 332 334 336 336 337 337 336 337 339 340 341 342 342 342 342 342 343 343 343 343 343 342 343 343 343 342 341 340 341 341 341 341 341 341 341 338 334 333 337 339 340 341 341 342 342 341 340 341 342 342 342 342 343 343 343 342 341 342 343 343 344 345 346 345 345 345 343 344 344 344 343 343 343 344
344 342 343 343 342 341 339 338 334 332 333 336 339 340 340 340 341 340 340 339 339 339 341 342 343 343 343 343 343 343 343 343 342 343 343 342 341 341 341 341 341 341 342 342 342 342 339 336 334 336 340 340 342 342 342 342 342 341 342 342 342 342 342 341 341 340 341 341 342 343 343 344 344 345 345 346 345 344 344 344 344 344 344 343 343
344 342 342 344 343 339 337 336 333 334 337 339 339 340 341 342 342 343 343 342 341 341 341 342 342 342 342 342 344 343 343 343 343 344 342 342 341 341 342 342 342 343 343 343 343 343 340 337 335 337 341 342 342 343 343 342 342 341 342 342 341 340 339 339 339 339 340 340 341 342 343 344 344 344 345 344 345 345 345 345 345 344 344 343 343
344 343 343 344 343 338 336 334 333 338 339 339 340 340 341 342 343 343 344 344 344 343 343 343 343 342 342 343 344 344 344 343 343 343 342 342 342 342 343 343 343 343 344 343 343 343 342 337 334 338 342 343 342 342 342 342 342 342 342 341 340 340 339 338 338 338 338 338 339 341 342 344 344 345 345 343 344 345 345 345 345 344 344 344 343
343 343 344 344 341 337 335 332 335 339 338 339 340 340 341 342 343 343 343 343 344 343 344 343 343 343 343 344 344 344 343 343 343 342 342 343 343 344 344 344 344 344 344 344 343 343 343 338 334 338 343 344 344 343 343 342 342 342 342 341 341 341 339 338 337 337 336 337 338 339 342 344 344 345 345 344 345 345 345 345 345 344 344 343 342
342 343 342 342 341 337 333 332 338 340 339 339 340 342 342 342 342 343 343 343 344 343 344 343 343 343 344 344 343 343 343 343 342 342 343 343 344 344 345 344 344 343 343 343 343 343 343 340 335 338 343 344 344 344 343 343 342 342 342 342 343 342 341 339 338 336 336 336 338 340 342 344 344 344 344 345 345 345 345 344 344 344 343 343 342
343 343 342 343 339 335 331 333 340 340 338 338 340 343 342 342 342 342 342 342 343 343 344 343 343 344 344 344 344 344 343 343 342 342 343 343 344 344 344 344 344 343 343 342 344 343 342 340 334 336 342 344 344 344 344 343 342 342 342 342 343 342 341 339 337 336 336 335 336 339 341 343 344 343 344 344 345 344 344 344 343 343 343 343 342
343 342 342 341 336 335 332 333 340 340 338 339 342 342 342 342 341 341 340 341 342 342 343 344 344 344 344 344 343 343 343 343 343 343 343 344 345 344 344 344 344 344 344 344 344 343 342 340 335 333 340 343 343 344 344 342 342 343 342 343 343 343 341 339 337 336 337 336 335 337 340 343 344 344 343 344 344 344 343 343 342 342 342 342 341
343 342 342 340 337 339 335 335 339 339 338 340 342 342 342 342 340 340 340 340 340 341 343 343 344 344 344 343 343 343 343 343 343 344 343 345 345 345 344 344 344 343 343 344 344 343 342 341 337 333 338 341 341 343 343 343 342 342 342 342 343 342 340 338 337 337 338 338 337 336 338 340 342 344 343 342 343 343 342 342 342 342 341 342 341
343 343 343 342 340 341 336 336 339 338 338 341 342 342 342 341 340 341 340 340 340 342 342 342 344 344 344 343 343 343 343 343 344 345 344 344 345 345 344 344 345 343 343 343 343 343 342 341 338 334 335 338 340 342 343 344 343 342 342 342 342 342 339 337 337 337 338 340 339 338 339 340 341 343 343 343 343 342 342 342 341 341 342 342 340
344 343 344 343 342 342 336 336 340 338 339 340 341 341 341 341 340 341 341 341 341 342 342 343 343 343 343 343 343 343 343 343 343 344 344 344 344 344 344 345 345 344 344 344 343 343 342 341 340 337 336 338 341 343 343 344 343 342 342 342 341 342 339 337 336 337 338 339 339 340 340 340 341 342 343 342 342 342 342 342 341 341 341 341 341
343 343 344 343 343 341 336 337 339 338 340 340 341 341 341 341 341 342 342 342 342 342 342 342 342 342 342 342 343 342 343 343 343 343 343 343 343 343 343 344 344 345 345 344 343 343 343 342 342 338 337 339 342 344 343 343 343 342 342 342 342 342 340 336 335 336 337 338 339 340 341 341 341 342 342 341 340 340 341 341 341 340 341 341 340
344 345 345 344 344 340 336 338 339 338 340 340 341 340 340 341 342 343 343 342 342 342 342 342 342 343 342 343 343 343 343 343 342 342 342 342 341 341 342 343 343 344 344 344 344 343 343 343 342 339 336 337 340 343 342 342 342 342 342 342 341 340 339 337 337 336 336 337 337 339 340 341 341 341 341 341 340 340 340 340 339 339 339 340 340
344 344 344 344 343 338 336 338 338 339 340 340 340 340 340 342 343 343 342 342 341 341 341 341 341 343 343 344 344 343 343 342 342 342 342 341 340 340 342 343 343 342 342 343 343 342 342 341 342 340 337 336 338 341 342 341 342 342 341 341 341 340 339 338 337 337 336 336 337 338 339 340 341 341 341 342 342 341 341 340 339 337 338 339 340
344 344 344 344 341 335 334 337 338 340 341 340 340 339 340 341 342 342 342 341 341 340 340 340 340 342 343 343 342 342 341 340 340 340 341 341 340 340 341 342 341 341 341 342 342 342 342 341 341 341 339 337 338 341 341 341 341 340 340 341 341 340 340 339 338 338 337 337 337 338 337 339 340 340 340 341 341 342 341 342 340 339 338 338 339
343 343 344 343 337 332 332 336 339 340 341 340 340 340 340 341 342 342 341 340 340 340 340 340 340 340 341 340 340 339 339 338 338 339 339 339 339 340 340 340 339 340 340 341 342 342 341 341 341 342 341 339 339 341 341 341 341 340 340 339 340 340 340 339 339 338 338 337 338 338 337 338 338 338 338 338 339 340 341 342 342 341 339 338 338
342 343 343 341 335 330 331 336 339 340 341 340 340 340 340 340 341 341 340 340 340 340 340 341 341 341 340 340 340 339 338 338 338 339 339 339 339 339 339 339 338 337 337 337 338 340 341 341 341 341 340 340 339 341 342 342 342 341 339 338 338 339 339 339 338 338 338 338 339 338 337 337 337 336 335 335 336 337 338 339 341 341 341 340 339
343 343 343 340 335 330 330 334 337 340 340 340 339 340 340 340 340 340 340 340 340 340 340 341 341 341 340 339 340 340 339 339 340 340 340 339 339 339 339 339 337 337 336 336 335 336 337 339 339 339 339 339 339 340 341 342 342 341 340 339 339 340 339 339 338 338 338 339 339 339 338 338 336 335 334 334 335 335 335 336 338 339 341 341 341
343 344 344 340 335 330 328 332 336 338 339 339 339 339 340 340 340 340 340 340 340 340 340 341 342 341 339 338 339 339 339 339 340 340 340 340 341 341 341 341 339 338 338 339 337 334 334 335 335 337 338 339 340 339 340 341 342 341 341 340 341 340 340 339 337 337 338 338 339 339 338 337 337 336 335 335 334 334 333 334 334 335 336 339 341
343 344 344 339 334 329 326 330 333 336 336 336 337 339 340 340 339 339 340 340 340 340 339 340 340 339 337 336 336 336 337 338 339 340 340 340 341 341 341 342 343 341 340 341 340 337 336 335 334 336 339 340 340 340 340 341 341 341 341 341 341 340 340 338 335 334 337 338 338 339 338 338 337 336 336 336 335 333 331 331 330 330 331 334 338
344 344 344 339 333 328 325 328 330 332 333 333 334 338 340 337 337 337 338 340 341 339 337 337 336 335 335 334 335 335 335 336 338 339 340 341 342 341 341 341 343 343 341 341 340 339 340 338 338 338 339 339 339 340 341 341 341 340 341 341 340 339 339 337 333 331 334 337 337 338 338 337 337 336 336 336 336 334 332 330 329 329 330 332 336
344 343 341 338 333 327 325 327 327 330 329 329 331 334 335 333 333 333 334 338 339 337 335 335 333 333 333 333 334 334 333 334 335 337 339 341 341 341 341 341 342 344 344 342 340 339 340 339 339 340 339 339 339 340 340 340 340 340 339 339 340 339 338 337 334 331 333 337 337 337 337 336 337 336 336 336 337 336 333 330 329 330 331 331 333
344 341 340 337 331 326 325 325 326 327 327 327 328 329 330 330 330 329 330 334 335 335 337 336 336 335 335 336 337 336 335 335 334 335 336 338 340 341 341 342 343 343 344 344 342 340 340 340 340 340 340 340 340 340 340 340 340 340 339 338 339 339 338 337 336 333 332 335 336 337 337 336 337 337 337 336 336 336 335 333 331 331 331 330 330
343 340 339 336 329 326 325 325 326 326 326 326 326 327 327 329 329 328 328 331 333 335 339 340 339 339 340 340 340 339 338 338 336 335 335 336 339 341 342 344 344 343 342 344 343 341 340 340 340 340 340 340 340 341 341 341 340 340 339 338 338 337 338 338 337 335 334 335 336 337 338 337 337 338 338 337 337 336 336 335 335 334 333 330 329
341 339 337 335 329 325 326 325 325 326 327 326 326 326 326 327 328 328 328 330 333 337 340 341 341 341 341 341 340 340 341 340 339 339 338 338 339 341 344 345 344 343 342 343 343 343 341 340 340 340 340 340 340 341 341 341 341 340 340 339 338 337 336 336 336 336 335 335 336 337 337 338 338 339 340 338 338 337 336 336 337 336 335 332 329
340 338 337 334 329 326 325 325 325 326 326 326 326 326 326 327 328 330 330 330 332 336 340 342 342 342 341 340 338 339 341 342 343 342 342 342 342 343 344 344 344 344 343 343 343 344 343 342 341 340 340 340 340 341 342 341 341 341 340 339 339 338 335 334 333 333 333 334 335 336 337 337 338 339 340 340 338 337 337 337 337 337 337 335 333
338 337 335 334 330 326 326 325 326 326 326 326 326 326 326 327 327 329 333 334 333 335 337 341 342 342 342 340 337 339 342 344 345 345 344 345 345 345 345 345 345 344 343 342 344 344 344 344 342 341 341 340 340 341 342 342 341 341 341 340 340 339 337 335 334 334 332 332 333 336 337 338 339 339 340 340 339 337 337 338 337 337 337 337 336
339 336 334 334 331 328 326 326 326 326 326 326 326 327 326 327 326 327 331 334 336 337 337 340 342 342 343 342 340 340 343 344 345 346 346 346 346 347 346 346 345 344 344 343 344 345 345 345 344 343 342 341 340 341 341 341 342 341 340 340 339 339 338 338 337 336 335 333 332 333 335 338 339 339 339 339 338 337 338 339 338 338 338 338 337
341 336 333 333 333 330 326 325 326 326 326 326 326 326 326 326 325 326 329 333 337 340 340 340 343 343 342 344 345 344 345 345 346 347 347 346 347 347 346 346 346 344 344 344 344 345 345 345 345 345 343 342 340 341 341 341 342 342 340 340 339 339 339 339 338 337 337 335 332 330 331 336 339 340 339 339 339 338 339 340 339 340 339 338 338
341 336 332 333 333 332 327 326 325 326 326 326 326 326 326 326 325 327 330 332 336 339 341 341 343 344 343 345 347 347 347 347 347 348 347 346 346 347 346 347 346 345 344 344 344 345 345 344 344 345 344 342 341 341 341 342 342 342 341 340 338 339 339 339 339 337 337 337 334 332 330 333 338 339 340 340 340 340 340 340 340 340 340 340 339
341 337 333 332 333 332 329 326 325 325 325 325 326 325 326 325 326 328 331 333 335 337 340 341 342 344 344 346 347 347 348 347 348 348 348 347 346 346 346 346 345 345 345 345 345 345 344 343 344 346 345 343 341 341 341 342 343 342 341 340 338 337 338 339 339 338 338 338 336 335 333 332 334 337 338 339 340 341 341 341 340 340 340 340 340
342 338 334 333 333 333 331 328 325 325 324 325 325 325 325 325 326 329 332 333 335 337 341 341 340 341 343 346 346 346 348 348 348 349 349 349 347 347 347 346 346 345 345 345 345 346 345 345 345 346 346 345 343 341 341 342 342 342 341 339 336 335 336 339 339 338 339 339 338 338 337 334 333 332 334 336 338 339 340 341 341 341 340 340 340
343 338 336 334 334 334 332 329 327 326 326 325 325 325 326 326 325 329 332 333 335 339 342 341 339 339 339 343 345 345 347 348 348 349 349 348 347 345 346 346 346 345 344 345 347 346 346 345 345 346 346 345 344 342 340 341 342 342 341 338 334 334 336 338 339 338 339 339 339 338 338 337 336 334 334 333 334 335 338 340 341 341 341 340 340
343 338 335 335 336 335 333 330 328 328 327 326 327 326 327 329 327 329 332 333 336 341 343 342 342 342 339 340 343 344 345 348 348 348 348 348 347 345 346 346 345 345 344 345 347 347 346 345 345 346 345 344 344 343 340 342 343 342 341 338 334 334 336 338 339 339 338 338 337 337 338 338 338 338 337 335 333 332 334 337 339 341 341 341 341
341 338 335 335 336 336 334 332 330 329 328 328 328 327 329 331 329 328 331 334 338 341 342 342 344 345 341 339 342 342 343 346 348 347 347 347 346 346 346 346 346 346 345 346 347 348 347 345 344 345 345 345 344 343 341 342 342 342 340 337 334 335 336 338 339 339 338 338 337 336 336 336 337 338 338 338 336 334 333 333 336 338 340 341 341
343 339 337 336 336 336 334 334 332 330 330 329 328 327 329 333 332 329 330 334 337 339 341 342 344 347 345 342 343 342 342 344 346 346 345 344 345 346 346 345 345 345 345 347 346 348 349 346 343 344 344 346 346 345 343 342 342 342 339 336 335 336 337 338 339 339 338 338 338 337 336 334 334 334 334 333 333 336 336 333 333 335 337 340 340
346 343 341 339 338 337 336 335 333 333 332 330 329 328 329 333 334 331 331 334 337 339 339 339 343 346 346 346 347 345 344 344 343 343 342 341 341 344 346 345 345 344 345 346 345 347 349 346 344 344 345 347 347 346 344 342 342 342 339 337 337 338 338 338 339 339 339 338 338 337 337 335 333 332 330 326 327 332 337 337 334 333 333 335 338
348 346 343 341 340 339 338 336 334 334 333 331 329 329 331 334 335 334 334 336 337 339 339 339 342 344 345 347 348 347 347 347 344 340 339 339 338 340 345 346 346 346 346 345 344 346 349 348 345 343 345 346 346 346 344 342 342 342 340 338 337 338 338 338 339 339 339 339 339 338 337 336 335 333 329 325 324 327 333 337 335 333 331 332 334
349 348 347 344 342 341 339 337 335 335 335 332 330 330 331 333 334 335 335 336 338 340 340 340 341 341 343 346 346 347 348 347 345 340 338 338 337 338 343 347 347 347 346 345 344 345 348 348 345 343 343 345 345 345 343 341 342 342 341 339 337 338 338 339 339 340 339 339 339 339 338 337 335 334 331 328 325 325 328 331 332 332 332 332 332
350 349 349 347 344 343 341 338 337 335 335 332 330 330 331 331 333 334 334 334 337 339 340 339 339 340 342 344 346 347 348 347 344 339 336 335 334 335 339 344 346 347 346 345 345 345 348 348 345 343 344 344 344 344 341 341 342 342 341 339 338 338 339 340 340 340 340 339 339 339 338 338 336 335 334 331 328 326 325 326 326 326 328 332 333
351 350 350 348 347 345 343 341 339 336 334 333 331 330 331 331 332 333 333 334 335 337 339 340 340 340 341 343 345 348 349 347 343 339 336 333 332 333 336 340 343 345 346 345 345 345 347 348 345 344 345 344 343 342 341 341 341 341 341 339 337 337 338 339 340 340 340 340 340 339 339 338 337 336 335 334 332 331 328 327 328 325 325 328 329
351 351 351 350 349 348 346 343 340 337 335 334 334 332 331 332 333 334 334 335 335 337 341 343 342 341 341 342 344 347 349 348 343 339 336 333 330 331 334 338 339 341 344 345 345 345 346 347 346 344 345 344 341 340 340 340 340 340 340 339 337 336 337 337 337 338 339 340 340 339 340 339 338 336 336 335 334 333 331 330 332 330 327 326 327
351 351 352 351 350 349 347 345 343 340 338 337 337 335 333 333 335 337 339 340 340 341 342 343 342 341 341 341 342 345 347 348 346 342 337 333 330 330 332 336 337 339 343 345 345 346 345 345 345 344 345 345 342 339 339 339 340 340 340 339 337 337 337 336 336 337 338 339 339 339 340 340 339 337 336 336 335 334 332 332 333 334 331 327 327
352 352 351 351 350 349 348 348 346 345 342 341 340 338 336 335 336 337 340 341 341 341 340 338 339 339 339 339 341 342 345 347 347 344 340 335 332 331 331 333 336 338 342 344 345 346 345 343 344 344 345 347 345 341 340 339 339 339 340 339 337 336 337 336 335 337 338 338 338 339 339 340 339 338 337 337 336 334 333 333 335 335 333 329 328
352 351 351 351 351 350 349 349 349 348 345 344 342 341 339 338 336 336 336 336 337 337 336 335 336 337 336 337 340 341 342 344 346 345 343 340 335 333 332 333 335 336 340 343 345 346 345 344 345 344 345 347 347 344 341 341 339 338 338 338 337 338 339 337 335 337 338 337 338 338 339 339 339 338 337 336 336 334 333 335 336 336 335 331 329
351 351 351 351 350 350 350 350 350 349 347 345 345 344 342 340 338 337 336 335 334 334 335 335 337 337 337 337 338 339 340 341 343 344 344 342 339 336 334 334 335 336 338 342 346 346 346 346 346 346 346 346 347 346 344 342 341 339 338 338 338 340 341 340 337 337 337 338 338 337 338 338 339 338 337 336 336 334 334 335 336 336 335 332 329
351 351 350 350 350 350 350 350 350 349 348 347 347 346 345 343 340 339 338 336 334 334 335 336 337 337 338 338 338 338 340 341 342 343 344 344 342 339 336 334 336 337 338 342 346 346 345 346 346 345 346 346 345 347 346 343 341 341 340 338 338 340 342 341 339 337 336 337 337 337 337 338 337 337 337 337 337 335 334 335 336 336 336 335 332
350 350 350 350 350 350 350 351 350 350 349 348 347 346 346 345 343 340 340 337 335 335 336 337 337 338 337 338 338 338 339 340 341 342 342 343 343 341 337 335 336 337 338 343 346 345 345 346 346 345 346 346 346 346 347 343 341 342 341 338 338 339 341 340 336 334 335 336 336 336 337 337 336 336 336 337 337 336 335 336 336 337 337 336 335
350 350 350 350 350 350 350 350 350 350 350 348 347 346 346 346 344 342 341 339 336 335 336 337 338 338 338 337 337 337 338 338 339 340 340 341 342 341 337 335 335 336 338 342 345 345 345 345 345 345 346 347 347 346 345 344 342 342 342 340 339 339 340 339 336 333 335 337 336 336 336 336 336 336 337 337 338 337 336 337 337 337 337 337 336
Wind_Speed
28 28 27 28 27 25 24 23 23 22 22 21 20 18 17 16 16 16 16 16 16 16 16 17 17 16 16 15 15 14 14 14 13 13 13 13 13 13 12 11 11 10 9 8 7 7 6 7 8 9 9 9 10 10 11 11 11 10 10 10 10 10 11 11 10 10 10 10 11 11 12 12 12 12 12 11 10 10 10 10 9 9 11 12 11
30 30 28 28 27 26 24 23 23 23 22 21 19 17 17 16 16 16 16 17 17 17 16 16 16 16 16 16 15 15 15 14 14 13 13 13 13 13 12 11 10 9 9 9 8 7 7 8 9 9 9 9 10 10 11 11 11 11 10 11 11 12 11 11 10 10 10 9 10 11 11 11 11 11 11 11 10 10 10 10 10 10 12 12 11
31 30 28 28 28 26 24 23 23 22 21 20 20 19 18 17 17 17 17 18 18 18 17 17 17 17 17 16 16 15 15 14 14 14 14 13 13 12 11 10 10 10 10 10 9 8 8 8 9 9 9 9 10 10 11 11 11 11 11 12 12 11 11 10 9 10 9 9 10 10 11 10 10 11 11 11 11 11 11 11 11 11 12 12 11
32 31 29 29 27 26 24 23 22 21 21 21 20 19 19 18 18 18 18 19 18 18 18 18 17 17 17 16 16 15 15 15 14 14 14 13 12 11 11 11 11 11 11 10 9 9 9 9 9 9 9 10 11 11 12 12 12 12 12 12 11 11 10 10 9 9 9 9 10 10 10 9 10 11 12 12 12 12 13 12 12 12 13 13 12
33 32 30 29 27 26 25 23 22 21 21 21 21 20 19 19 18 18 18 19 18 18 18 18 17 17 17 16 16 15 15 14 14 13 13 12 12 11 11 11 11 11 11 11 10 10 9 9 9 10 10 11 13 12 13 13 13 13 12 12 11 11 10 10 10 9 9 9 9 9 8 9 9 11 12 12 11 12 13 13 12 13 13 13 13
33 32 30 30 28 27 25 22 22 21 21 21 21 20 19 18 18 18 18 18 18 18 18 18 17 17 17 16 15 15 14 13 13 13 13 12 12 12 11 11 11 12 11 11 11 10 10 9 10 11 11 12 14 14 14 14 13 13 12 12 11 12 11 11 10 10 10 10 9 8 9 9 10 11 12 11 11 12 13 13 13 13 12 13 13
33 32 31 30 29 28 25 23 22 22 21 21 20 19 18 18 17 17 17 17 17 17 17 17 17 16 16 15 14 14 14 14 13 12 13 12 12 12 12 12 12 11 12 11 11 11 10 10 10 12 12 13 14 14 14 13 13 12 12 12 12 12 11 11 11 11 10 10 9 9 9 10 11 12 12 12 11 12 13 13 13 12 12 12 13
32 32 32 31 29 28 25 23 23 22 21 20 20 19 18 17 17 16 16 16 16 16 16 16 16 15 15 14 14 13 13 13 13 12 12 12 11 11 12 12 12 12 12 11 11 11 11 10 10 12 12 13 14 13 13 13 12 12 13 12 12 11 11 11 11 11 11 11 10 10 11 11 12 12 12 12 12 13 13 12 13 12 12 12 12
33 32 32 30 28 27 25 24 23 21 21 20 20 19 18 17 16 16 16 16 16 16 15 15 15 14 14 14 14 13 12 13 13 12 12 12 12 12 12 12 12 12 12 12 11 12 12 10 10 12 13 14 14 13 13 12 12 12 12 12 11 11 11 11 11 12 12 11 11 10 12 13 13 13 12 12 13 14 13 13 13 12 12 12 10
33 33 32 29 28 26 24 24 23 21 21 20 20 19 17 17 16 16 16 15 15 16 15 15 14 14 13 13 13 13 12 12 12 12 11 11 11 11 12 12 12 12 12 12 12 12 12 11 10 12 13 14 14 12 12 12 12 12 12 12 11 11 11 11 11 12 12 12 11 11 12 14 14 14 13 12 13 13 13 12 13 13 11 10 9
34 33 31 29 27 24 24 23 22 21 21 20 19 18 17 17 16 16 16 16 16 15 15 15 14 13 12 12 12 12 12 12 12 11 10 11 11 11 11 12 12 12 12 12 13 13 13 13 11 12 14 14 13 12 11 11 11 12 12 12 11 11 10 10 11 11 11 11 11 12 12 13 14 14 13 12 13 12 12 12 13 12 11 10 9
34 33 30 28 26 24 23 23 22 21 21 20 19 18 17 17 16 16 16 16 16 15 15 14 14 13 12 12 12 12 12 12 12 11 10 10 11 11 11 12 12 12 12 12 12 12 13 14 12 12 13 13 13 11 11 12 12 12 11 11 11 11 10 10 10 11 11 11 12 12 12 12 12 13 13 13 12 13 13 13 12 12 11 10 10
34 33 30 29 27 24 23 23 22 21 21 20 19 18 17 17 16 16 16 16 16 15 15 14 14 13 13 13 12 12 12 12 12 11 10 9 10 10 10 12 12 13 13 13 12 12 13 14 13 12 13 13 11 11 12 12 12 12 11 11 11 10 10 10 10 11 11 11 12 12 12 12 12 12 13 12 12 13 13 13 12 12 11 11 10
35 33 30 29 26 23 23 22 22 21 21 20 19 18 17 17 16 16 16 16 16 16 15 15 15 14 14 14 13 13 13 12 12 11 10 9 9 9 9 10 11 13 13 13 13 13 13 13 13 12 12 12 11 11 12 13 12 12 11 11 10 10 9 9 10 10 11 11 12 12 11 12 12 12 12 11 11 11 10 11 11 10 10 11 11
34 32 30 28 25 24 23 22 22 22 21 20 19 18 18 17 16 16 16 15 15 16 15 15 15 15 15 14 14 14 13 13 12 12 11 11 10 9 9 10 10 12 12 13 13 13 13 13 13 12 12 12 11 11 12 12 12 12 11 10 10 10 9 9 10 10 10 11 11 11 11 11 11 11 11 10 10 10 10 10 9 9 10 10 11
33 31 30 27 25 25 23 22 22 21 20 19 18 18 18 17 16 16 15 15 15 16 16 16 15 15 15 14 14 14 13 13 12 12 12 12 12 11 11 11 11 11 11 11 13 13 12 13 13 12 12 12 11 11 12 12 12 12 11 10 10 10 9 9 9 9 9 9 10 10 10 10 10 10 10 9 10 10 10 10 9 9 10 10 10
33 31 29 26 25 25 24 23 23 22 20 18 18 18 17 17 17 16 15 15 16 16 16 16 16 14 14 14 14 14 13 13 13 13 13 13 12 12 12 11 11 11 11 10 11 12 12 12 12 11 11 11 11 10 11 11 11 11 11 10 10 9 9 9 8 8 8 8 8 8 9 10 9 9 9 9 9 9 9 9 9 9 9 9 9
33 30 28 27 26 26 24 24 23 22 20 18 18 17 17 17 17 16 16 16 16 16 16 16 16 16 15 15 15 15 14 14 14 14 13 13 13 12 12 12 12 12 12 11 11 11 12 12 12 11 10 10 10 10 10 10 10 10 10 10 10 9 9 9 8 8 7 7 7 7 8 9 8 9 9 9 9 8 8 8 8 9 9 9 9
32 30 27 27 27 26 25 24 24 23 21 19 18 17 17 17 16 16 16 16 16 16 16 16 17 17 16 16 16 15 15 15 14 14 13 12 12 12 12 12 12 12 12 12 12 11 11 11 11 11 10 10 10 10 10 10 9 9 9 10 10 9 9 9 8 7 7 7 6 6 6 8 8 8 8 8 8 8 8 8 8 8 8 8 8
31 30 28 28 27 27 26 25 25 23 22 20 19 18 17 17 16 16 16 16 16 16 16 16 16 16 16 16 15 15 15 14 14 13 12 12 12 12 12 12 11 12 12 12 12 12 12 11 11 11 10 10 10 11 10 10 10 10 9 9 9 9 8 8 8 7 7 7 6 6 6 7 7 7 8 8 8 7 7 7 7 7 7 7 7
31 30 28 29 28 28 27 25 25 24 22 21 19 19 17 17 17 17 16 16 16 16 16 16 16 15 15 15 14 15 14 14 14 13 12 11 11 11 11 11 11 11 11 12 12 12 12 12 11 11 11 10 10 11 11 11 10 10 9 8 8 8 8 7 7 7 7 7 7 6 6 6 7 7 7 7 7 7 7 7 6 6 6 6 6
32 31 29 30 29 28 27 26 25 24 23 21 20 19 18 17 17 17 17 16 16 15 16 15 15 14 14 14 14 14 14 13 13 13 11 10 10 10 10 10 10 10 10 11 11 11 11 12 12 12 13 12 11 11 12 12 12 11 10 9 9 8 8 7 6 6 6 6 7 7 6 6 7 6 6 6 6 6 6 6 5 5 6 6 6
34 33 31 31 30 29 28 26 25 24 23 21 21 20 19 18 18 18 17 17 16 15 16 15 15 14 13 13 13 12 12 12 12 12 10 10 10 10 9 9 9 10 10 11 12 12 12 12 13 13 14 14 13 13 13 13 13 12 11 11 10 9 8 7 6 6 6 6 6 6 6 6 7 7 6 6 6 5 5 5 5 5 5 6 6
36 35 33 32 31 30 28 27 25 24 23 21 21 20 19 19 18 18 17 17 16 16 16 15 15 13 13 12 12 12 12 11 10 11 10 9 9 9 9 9 9 9 9 11 12 13 13 14 14 14 14 14 14 14 13 13 12 12 11 11 10 9 9 8 7 6 6 5 5 6 6 6 7 7 6 6 5 5 5 5 5 5 5 6 6
37 36 34 33 32 31 29 28 26 24 23 21 21 20 19 19 18 18 17 17 17 17 16 16 15 13 12 11 11 12 12 10 10 10 9 8 9 9 10 10 9 9 9 10 12 13 14 15 15 14 14 13 13 12 11 10 10 11 11 11 11 10 9 8 7 6 5 5 5 5 5 5 6 7 6 5 5 4 5 5 5 5 5 5 6
37 37 36 34 33 32 30 29 26 25 23 21 20 19 19 18 18 17 17 17 17 17 16 16 15 13 13 11 11 11 11 10 9 10 9 8 8 8 9 9 9 9 9 10 12 13 13 14 14 14 12 11 10 9 8 7 7 7 8 9 10 10 9 8 7 6 5 5 5 5 5 5 6 6 6 5 4 4 4 4 4 5 5 5 5
38 37 37 35 34 33 31 30 27 26 24 22 21 19 19 18 17 17 17 18 18 18 17 16 15 14 13 12 11 11 11 10 9 10 10 9 9 8 8 8 8 8 8 10 11 12 12 13 13 13 12 11 10 8 6 5 4 4 5 6 8 8 8 8 7 6 5 4 4 5 5 5 5 6 6 5 4 4 4 4 4 4 5 4 4
39 38 38 36 35 34 32 30 28 27 25 23 21 20 19 18 17 16 17 17 17 18 16 15 14 14 13 11 11 11 11 10 9 9 10 10 9 8 7 7 7 8 8 9 10 10 10 11 11 11 11 11 10 7 5 4 3 3 3 4 5 6 7 8 7 6 5 3 3 3 4 5 6 6 6 6 5 4 4 4 4 4 4 4 4
40 39 38 37 36 35 34 31 30 28 26 24 22 21 20 18 17 15 16 16 16 17 16 15 14 14 13 11 11 11 11 10 9 9 9 10 9 8 7 7 7 7 7 8 9 9 9 9 10 10 10 10 10 8 6 4 2 1 2 2 3 4 5 7 7 6 5 3 2 2 3 4 5 6 6 5 5 4 4 4 3 3 3 3 3
41 40 39 38 36 35 35 32 31 29 27 25 23 22 20 18 16 15 15 15 15 16 16 15 14 14 13 12 11 11 11 10 9 9 9 9 9 8 7 7 6 6 7 7 7 7 7 7 9 10 10 11 10 9 7 5 3 2 3 3 3 3 4 5 5 6 5 3 2 1 2 4 5 5 6 5 5 5 5 5 4 3 3 3 3
40 41 40 39 37 36 35 34 32 29 28 26 24 23 21 18 16 15 15 15 15 16 16 15 14 14 13 12 12 11 11 11 10 8 8 8 8 8 7 7 6 7 7 6 6 6 6 6 7 9 11 12 11 10 9 6 4 3 3 3 4 4 3 3 3 5 5 4 3 2 2 3 4 4 4 4 5 5 5 5 4 4 3 3 3
41 42 41 39 38 37 36 35 33 31 29 27 25 24 21 19 16 16 16 15 16 16 16 16 15 14 13 13 12 12 12 11 10 8 8 7 7 7 7 7 6 6 6 6 7 6 5 6 7 9 11 13 13 12 11 8 5 4 2 2 4 4 3 2 2 4 4 4 3 2 2 2 3 3 3 3 3 4 5 5 5 4 4 4 3
41 41 41 40 39 37 36 35 34 33 31 28 26 25 22 20 18 17 16 16 16 16 16 17 16 15 14 14 12 12 11 11 10 8 7 7 7 7 7 7 6 6 6 5 5 5 5 6 7 8 9 12 14 14 13 10 7 6 3 2 3 4 5 4 2 3 3 3 3 3 2 2 3 3 3 3 3 4 5 5 5 5 5 5 4
41 42 41 41 39 38 37 36 35 34 32 30 27 25 23 22 20 18 18 17 17 17 17 17 16 15 14 14 13 11 10 10 9 8 7 6 7 7 6 7 6 6 6 6 5 4 5 6 6 7 7 9 13 15 15 11 8 7 5 3 3 4 6 6 3 3 2 2 3 3 3 3 3 2 1 2 2 3 5 5 5 5 5 5 5
41 43 42 42 40 39 38 37 36 34 33 31 28 26 24 22 22 20 19 18 18 18 18 18 17 15 14 14 12 10 10 10 9 8 7 6 6 7 7 7 6 6 6 6 5 4 5 6 6 6 6 8 10 15 16 12 9 8 5 3 3 5 7 7 5 3 3 3 4 4 4 4 5 4 2 2 1 2 4 5 5 5 5 5 5
41 43 42 41 40 40 39 38 37 35 34 32 29 27 24 23 23 22 21 20 19 20 20 19 17 15 14 15 13 12 11 10 9 8 7 6 6 7 7 7 7 6 6 6 5 4 5 5 5 5 5 7 9 13 16 13 9 8 5 2 3 5 7 8 7 5 5 5 5 5 5 4 4 4 4 3 2 0 2 4 5 5 5 5 5
40 42 42 42 41 40 40 39 38 36 34 32 29 27 25 24 24 24 22 21 21 21 20 19 17 15 14 15 14 14 12 10 9 8 7 7 6 7 7 7 7 7 6 6 6 5 5 4 5 5 5 7 9 12 14 12 9 7 4 3 4 6 8 9 8 7 6 6 6 6 6 6 5 5 5 4 3 2 0 2 3 5 5 5 5
38 41 42 42 42 41 41 40 38 37 35 33 30 28 26 25 24 25 24 23 22 20 20 19 17 16 15 16 15 14 13 11 11 10 8 7 7 7 8 8 7 7 7 7 7 6 5 4 4 5 6 7 8 10 12 12 9 6 4 4 6 8 8 8 8 6 6 6 6 7 7 7 7 6 6 5 3 2 2 1 1 3 4 5 5
36 38 40 41 41 41 40 40 39 38 36 33 31 29 28 26 25 25 26 25 22 20 20 18 18 17 17 17 15 14 13 12 12 12 11 9 8 8 9 9 8 7 7 7 7 7 6 5 4 5 7 8 8 10 12 12 9 6 5 5 7 8 7 7 6 6 6 6 5 6 6 6 7 7 7 6 3 1 2 2 1 1 3 4 5
35 36 38 40 41 41 41 40 40 38 37 35 32 30 29 28 27 27 27 26 23 21 21 19 18 18 18 17 16 15 13 13 13 14 13 12 10 9 9 9 9 8 7 7 6 6 6 5 5 6 7 8 9 10 12 12 9 6 5 6 7 8 7 6 6 6 5 4 3 3 4 4 5 7 7 8 6 2 2 2 2 1 2 3 4
37 37 38 40 41 41 42 41 40 39 38 36 35 33 32 31 30 29 29 28 25 23 23 22 21 20 19 18 16 15 13 14 15 15 15 15 13 11 10 10 10 8 7 6 6 6 6 7 6 5 7 8 9 10 12 13 10 7 6 6 7 8 7 5 5 5 4 3 2 1 1 2 3 6 7 9 9 6 4 2 2 2 2 2 3
40 39 39 39 40 41 41 41 41 40 39 37 36 36 35 33 32 31 29 28 26 25 24 24 22 20 20 19 16 13 12 14 16 16 15 16 16 14 12 11 10 9 8 8 7 7 8 8 7 5 6 8 10 11 12 14 12 8 7 7 8 9 9 7 6 5 4 4 3 2 1 1 1 3 5 8 10 9 7 5 3 2 2 2 2
42 41 39 39 40 40 41 40 41 41 40 38 37 37 36 34 33 31 29 28 27 26 24 24 22 21 21 20 17 14 12 13 16 17 16 16 16 15 13 12 10 9 9 9 8 8 9 9 7 6 6 7 10 12 13 14 12 10 9 8 8 9 9 9 8 7 6 6 4 4 4 3 3 2 3 5 7 8 7 7 6 4 2 2 3
43 42 42 40 41 41 41 40 40 41 41 39 38 37 36 34 33 31 29 28 27 26 25 24 23 23 22 21 19 17 14 14 15 17 17 16 16 15 14 13 11 10 10 9 9 8 9 9 8 8 7 7 9 11 13 14 12 12 11 9 8 9 9 9 8 8 7 7 7 7 7 5 5 5 3 3 4 5 5 6 7 6 4 2 3
46 45 43 42 41 41 41 41 40 40 40 40 39 38 37 36 35 33 31 30 29 27 27 27 26 25 24 23 21 19 17 15 14 15 16 16 16 15 14 13 12 11 10 9 9 8 8 9 8 8 7 7 8 10 13 13 12 12 11 9 8 8 9 9 8 8 9 8 8 8 9 8 8 8 6 4 4 3 3 4 6 8 6 3 2
48 47 44 42 41 41 41 41 41 40 39 39 39 39 40 39 38 36 35 34 32 31 30 29 28 27 25 24 22 20 18 17 15 14 15 15 15 15 15 14 13 12 11 10 9 9 9 9 8 8 7 7 9 11 12 12 12 13 12 10 8 6 7 10 10 10 10 11 10 10 10 10 10 10 8 6 5 4 2 3 5 7 7 5 2
50 47 45 43 42 41 41 41 41 41 40 39 39 40 41 41 40 38 37 36 35 34 32 30 29 27 25 23 22 21 19 18 17 16 15 14 14 15 15 14 13 13 12 11 10 10 10 9 9 8 8 9 10 12 13 12 13 13 12 12 9 6 5 8 12 12 11 12 12 11 12 12 12 12 10 7 6 5 3 3 4 6 7 6 3
50 49 47 45 44 42 42 41 41 41 40 40 40 41 42 42 41 40 39 38 36 34 32 31 30 28 26 24 23 22 20 19 18 17 16 14 14 15 15 15 14 13 13 12 11 11 11 10 10 9 9 10 11 12 13 14 14 13 13 13 11 8 7 8 11 13 13 12 12 12 12 12 13 13 11 9 7 6 5 4 4 5 5 5 4
51 50 49 47 45 44 43 42 41 41 40 41 41 41 42 43 43 41 40 39 37 35 32 31 30 28 27 26 25 23 21 20 20 19 17 15 14 14 15 16 15 14 14 13 12 12 12 11 11 10 11 11 12 12 13 14 14 13 12 13 12 10 9 9 11 13 15 13 12 12 12 13 13 12 11 10 8 7 6 5 5 5 4 4 3
51 51 50 48 47 46 45 44 43 41 40 40 41 41 42 43 44 43 41 39 38 36 34 32 31 29 28 27 26 24 22 21 21 20 18 16 15 15 16 17 16 15 15 15 14 14 14 13 11 11 11 11 11 12 12 13 14 13 12 12 13 12 11 11 11 13 15 15 14 13 12 13 12 10 9 9 8 7 7 6 6 6 5 4 3
51 51 50 50 49 48 47 46 45 43 41 40 40 41 41 43 44 44 42 40 38 37 36 34 32 31 29 28 27 25 23 22 21 20 19 17 16 15 17 18 17 17 16 16 15 15 14 14 12 11 11 11 11 12 12 12 13 14 13 12 13 14 13 12 11 12 14 16 15 13 12 12 12 11 10 10 9 8 8 8 8 7 7 6 5
Wind_Direction
144 141 138 137 135 135 138 140 140 141 139 138 136 135 134 134 136 137 138 140 141 142 145 146 147 148 148 149 147 146 145 144 144 146 144 143 140 137 136 135 133 129 125 123 124 122 117 110 107 106 108 113 113 116 119 123 127 131 132 130 132 129 125 121 118 115 110 107 108 113 119 122 125 128 128 128 127 122 118 117 121 123 119 114 112
145 143 140 139 137 138 143 143 143 143 140 138 137 136 135 135 133 133 132 132 134 135 138 140 142 143 144 146 144 144 142 144 146 145 143 143 140 138 137 135 134 132 133 131 129 123 112 107 110 113 115 117 115 115 117 120 123 126 129 128 128 128 125 120 118 115 112 112 113 118 123 126 129 131 131 130 126 120 116 116 123 125 117 110 107
146 144 142 140 139 141 145 145 144 142 138 137 135 135 134 132 131 130 129 129 130 132 135 137 139 141 143 144 144 144 144 145 146 145 144 144 141 140 139 137 139 138 137 132 127 117 105 102 110 119 118 119 118 116 118 122 124 125 128 127 127 126 124 121 120 117 117 120 122 127 130 133 134 134 135 132 126 122 119 119 125 125 117 112 107
148 146 143 140 140 144 148 147 144 140 136 137 135 135 133 132 131 129 128 127 129 132 135 137 140 141 142 144 144 145 144 145 144 145 144 143 143 143 142 143 142 139 135 128 123 113 103 99 109 120 119 119 119 117 119 123 122 122 126 126 125 123 122 121 122 122 122 126 130 131 131 137 137 133 134 129 125 125 123 125 129 125 121 117 110
150 147 143 140 143 148 151 149 142 138 136 137 136 135 133 132 132 131 129 129 131 133 135 137 137 139 142 144 144 143 142 143 144 144 142 142 145 144 143 142 139 135 132 128 124 116 105 99 110 121 119 119 120 119 120 121 121 122 122 119 118 116 116 117 119 122 125 128 130 127 126 135 137 130 129 127 128 128 127 130 130 125 122 118 111
151 148 145 143 147 151 152 149 142 139 138 137 136 134 133 132 133 133 133 133 135 135 136 137 138 140 142 142 141 141 141 142 144 143 141 142 143 141 140 137 134 132 129 127 126 120 111 102 113 123 120 119 120 121 121 121 122 120 119 115 113 111 111 113 115 120 124 127 128 126 123 128 132 126 123 127 133 132 130 130 127 124 122 117 110
151 149 147 146 149 151 151 149 143 142 140 137 135 134 133 134 135 135 135 135 136 136 137 139 140 141 140 139 140 140 141 142 141 141 140 140 140 138 135 134 132 130 129 129 127 123 116 107 116 124 120 120 120 122 124 124 125 123 120 117 113 111 111 112 113 116 118 120 124 124 121 121 124 121 118 124 132 130 129 129 124 121 118 110 104
151 150 149 149 150 149 150 149 145 144 139 137 136 135 135 136 137 137 137 138 138 136 137 140 139 139 139 140 139 138 140 140 139 140 140 138 136 133 132 131 130 130 131 132 132 127 120 110 115 126 124 122 123 124 125 125 125 123 120 117 113 111 110 110 109 110 110 112 117 118 115 116 117 117 119 125 130 129 127 126 122 119 114 106 102
152 151 150 150 149 148 150 150 147 144 140 139 139 137 137 138 139 139 139 139 140 139 138 138 139 140 140 139 136 136 138 137 137 139 139 136 133 131 129 127 129 134 134 133 132 129 121 111 113 126 128 124 125 125 123 123 122 120 118 115 112 112 111 110 110 109 106 105 113 116 110 110 111 114 122 127 129 129 129 127 122 117 110 104 108
153 152 151 150 149 149 151 151 148 145 142 142 141 139 139 139 139 139 139 140 141 142 141 139 139 139 138 136 134 135 135 133 134 136 138 135 131 129 126 125 129 135 136 135 132 130 124 115 115 126 131 127 126 123 120 122 123 122 120 117 114 114 114 113 114 112 107 103 110 117 111 107 107 110 117 122 124 126 129 127 121 115 108 107 113
154 153 153 151 150 151 152 151 149 148 145 143 142 141 141 141 141 141 140 141 143 142 141 140 138 136 135 135 132 131 130 130 130 131 134 133 131 127 125 126 128 130 132 134 132 133 128 121 117 125 133 130 127 125 120 122 125 126 121 118 117 116 113 112 114 114 110 105 105 113 114 110 106 108 114 119 122 125 126 124 119 116 116 118 118
155 155 154 153 151 153 154 151 151 150 147 145 144 144 144 144 143 143 142 142 142 141 140 139 138 136 136 134 131 128 127 128 126 127 128 127 126 125 125 127 128 128 129 130 132 135 129 123 121 125 132 132 131 129 122 120 122 124 121 118 118 115 113 114 115 114 111 109 107 110 115 115 111 113 116 119 125 130 130 128 125 123 124 127 121
156 156 156 154 153 156 155 152 154 151 148 147 144 145 146 145 143 143 142 142 142 141 140 139 138 137 137 135 132 130 127 125 124 123 122 120 120 122 125 126 128 127 125 128 133 132 127 126 126 127 130 132 133 130 121 118 120 124 123 121 119 117 117 116 114 113 112 112 113 112 116 117 116 116 115 118 125 129 130 128 125 124 127 129 122
157 156 157 156 155 157 156 155 155 151 149 147 146 147 146 145 145 144 141 140 141 141 141 139 139 139 137 136 134 131 126 124 123 122 122 120 119 120 123 122 124 122 120 124 129 128 129 131 130 129 130 132 132 126 121 121 123 125 124 123 121 121 120 115 110 110 111 111 114 116 119 118 117 117 115 116 120 123 125 122 122 125 129 131 125
158 158 158 157 156 158 158 157 155 152 150 148 148 147 146 146 145 143 139 139 141 142 141 140 140 139 138 136 134 130 125 124 122 123 123 121 120 120 119 115 113 112 114 119 121 125 131 134 133 132 131 133 132 126 125 124 124 125 125 124 122 123 122 116 111 109 108 110 114 119 121 121 120 118 119 121 123 125 127 128 133 139 140 136 130
159 159 158 158 159 160 160 158 156 152 152 151 150 147 147 147 143 141 138 139 141 141 141 140 140 138 137 133 130 127 125 124 121 122 120 119 119 119 117 114 111 109 112 112 113 119 126 132 132 133 133 134 133 129 129 126 124 126 125 123 122 122 124 120 115 112 110 110 113 118 122 121 119 118 121 125 127 129 130 131 135 140 143 139 132
162 160 160 161 162 163 162 160 157 154 154 154 151 149 149 147 143 141 139 141 141 141 140 138 138 136 133 130 127 125 124 124 122 122 119 118 118 118 117 114 113 111 112 109 109 114 120 128 131 133 136 135 134 133 131 128 126 126 123 119 119 119 123 122 118 118 116 115 113 116 118 116 115 115 118 122 125 129 128 128 128 130 135 139 135
164 163 162 165 166 166 165 161 159 157 157 158 155 153 150 147 144 142 140 141 140 139 138 135 133 131 129 127 127 125 125 125 123 121 118 118 117 117 117 114 113 111 112 111 111 114 117 126 131 135 138 134 132 130 129 129 126 124 123 118 115 114 117 120 121 124 125 124 120 120 118 115 115 114 114 117 121 124 125 125 125 124 127 133 136
165 166 166 167 169 169 167 163 161 160 160 162 159 155 152 149 145 143 142 142 140 138 136 133 130 128 126 126 126 126 125 125 123 120 117 116 116 116 114 112 112 112 112 111 113 115 117 121 127 132 134 131 128 125 125 124 120 120 120 116 114 113 113 117 123 128 131 132 127 124 117 115 117 114 114 114 115 117 120 122 122 123 124 128 133
168 169 169 171 172 172 169 166 164 162 163 164 161 158 155 151 148 145 144 143 142 140 138 135 132 129 128 127 128 129 127 127 125 121 120 118 116 114 114 111 109 108 107 106 108 112 116 118 120 124 128 130 127 121 119 117 115 112 111 112 113 112 112 115 123 129 132 135 132 127 119 116 116 114 115 113 111 113 114 118 121 125 127 128 132
172 172 173 174 175 175 172 168 167 165 165 166 163 161 157 155 152 149 147 147 145 143 143 140 137 134 132 131 130 131 129 130 129 125 125 123 118 114 113 113 112 109 105 102 102 106 112 115 116 117 121 125 120 112 109 110 109 105 104 107 112 112 111 112 119 127 129 134 136 135 133 125 120 114 114 112 111 111 110 113 116 120 125 128 133
175 175 175 177 178 178 175 171 169 167 167 167 165 161 160 161 156 153 152 150 150 149 148 144 142 139 136 134 131 129 128 131 133 131 130 127 122 117 113 114 116 117 115 111 107 107 110 113 115 114 113 115 113 107 105 107 106 103 102 104 105 104 103 106 116 127 128 131 137 139 142 135 126 118 112 111 108 105 103 104 107 113 122 128 131
177 177 177 180 181 179 177 175 170 168 169 167 165 161 162 163 158 157 156 154 156 154 150 146 144 143 143 140 136 133 132 135 136 134 134 132 125 121 118 116 116 119 121 118 113 112 113 115 116 113 109 110 113 111 110 111 108 104 103 104 103 97 93 96 105 124 130 130 136 138 142 139 130 124 117 114 110 104 98 95 103 108 116 125 129
179 179 179 182 183 181 179 177 172 169 168 166 163 161 161 160 159 158 159 159 158 154 149 147 148 149 153 150 145 142 140 142 141 137 137 136 131 127 123 118 117 117 118 121 123 121 118 118 117 115 109 109 113 115 116 113 107 100 96 99 102 99 93 91 94 114 131 131 135 139 142 142 133 127 122 121 120 113 103 97 102 106 110 117 122
181 181 182 183 183 182 181 178 175 171 168 165 160 158 158 158 159 159 160 161 156 153 150 148 150 153 157 156 152 147 144 146 147 142 139 136 131 129 126 121 121 121 122 130 136 134 128 124 121 119 114 111 112 113 115 109 103 97 90 90 93 99 99 95 94 102 122 133 139 144 147 145 137 130 125 125 129 126 116 111 109 108 110 109 115
183 184 185 185 183 183 183 180 177 172 169 165 159 155 155 155 157 159 161 162 158 156 154 152 154 156 157 158 157 152 146 147 148 145 140 136 131 130 128 126 127 126 130 137 144 145 140 135 131 129 125 121 120 116 115 109 104 98 90 87 87 94 100 100 100 101 112 128 141 150 154 152 141 134 132 133 139 140 131 124 119 115 114 109 111
186 186 187 187 184 184 185 183 178 174 171 166 163 159 155 153 155 160 163 164 162 160 157 156 158 160 161 161 160 155 149 146 146 142 136 135 135 135 131 128 131 130 132 137 145 152 151 148 145 142 141 138 135 131 128 124 118 111 102 94 88 90 96 101 100 98 101 113 138 152 158 157 148 144 144 146 152 155 148 138 130 124 120 115 113
189 189 189 189 186 185 186 185 181 177 174 170 168 165 161 158 157 161 165 167 167 164 159 158 163 165 164 163 161 155 149 146 145 141 135 137 139 140 139 134 133 133 135 137 142 151 158 160 159 155 153 151 150 149 150 145 139 132 124 114 102 97 97 100 97 92 92 96 126 152 160 162 157 157 158 159 166 165 160 155 147 139 132 127 124
191 190 191 191 188 187 187 187 184 180 177 174 174 172 169 166 164 165 168 170 170 167 163 161 165 168 164 162 161 156 151 150 148 142 139 142 144 145 146 143 140 138 140 141 142 149 159 167 172 173 168 164 163 160 165 168 169 191 197 171 138 120 105 99 94 89 84 85 108 144 158 164 164 166 170 172 174 170 167 165 162 158 152 144 139
193 192 193 192 190 190 189 189 187 184 182 180 180 179 178 175 172 172 174 174 173 173 170 167 169 170 167 163 162 157 152 157 157 150 148 147 148 151 153 150 146 145 144 145 148 154 160 166 175 182 183 179 174 170 173 175 188 236 241 220 184 153 125 104 95 86 75 73 85 121 152 162 168 173 177 181 180 178 175 170 168 172 170 164 157
195 195 194 193 193 193 192 192 191 189 187 186 186 185 186 183 178 179 180 178 177 179 175 173 174 173 171 168 166 163 156 158 160 155 153 148 148 156 157 155 151 152 149 143 150 159 158 156 166 177 185 187 184 181 182 185 203 234 244 228 209 187 158 126 100 83 68 67 76 96 138 156 167 173 178 185 189 188 186 181 178 185 189 188 176
197 197 195 195 195 195 194 194 194 194 193 192 191 191 191 189 185 185 184 182 184 185 180 178 177 173 176 176 174 172 165 161 162 158 156 151 150 156 156 156 153 155 152 141 148 160 161 161 166 172 182 190 192 191 190 195 212 228 241 237 218 204 189 175 124 84 66 68 77 91 110 136 159 169 175 188 200 200 200 195 193 198 203 209 204
198 198 197 197 197 197 197 196 197 198 198 197 196 196 196 194 191 190 187 187 191 190 185 183 179 176 182 184 184 182 173 169 169 165 167 164 161 165 163 159 157 160 164 160 159 161 156 161 169 172 179 188 193 195 193 197 214 227 235 252 236 211 199 202 158 96 68 69 74 90 112 114 140 160 176 189 204 211 213 208 207 209 210 218 220
199 199 199 198 199 199 199 199 199 200 201 201 200 199 199 199 196 194 191 193 197 193 189 186 182 182 187 189 191 191 182 177 180 179 181 177 172 179 179 171 165 165 172 173 172 161 148 158 171 177 186 190 192 196 195 198 213 220 228 254 236 194 189 196 166 110 74 70 74 91 117 114 117 127 158 182 204 216 221 218 217 219 219 221 223
201 201 200 199 200 201 201 201 201 201 203 203 203 201 201 200 198 197 196 196 199 196 191 188 185 188 192 194 195 199 195 186 187 193 191 186 182 185 185 180 171 169 173 173 175 167 154 164 174 178 192 194 190 193 194 199 211 213 220 239 197 172 173 181 169 131 101 87 83 89 106 113 113 111 119 132 180 223 227 229 225 224 227 228 227
203 203 201 200 201 202 203 204 203 202 203 204 204 202 200 199 198 199 200 200 200 197 192 189 188 190 197 200 201 206 205 195 194 200 200 195 189 187 188 183 175 177 181 178 184 185 172 174 175 170 177 186 187 189 193 199 207 208 212 215 185 175 164 162 160 140 114 101 93 88 89 92 98 100 99 95 86 197 229 236 235 229 229 234 235
204 205 204 202 202 203 205 206 205 203 203 204 203 202 200 199 199 200 203 203 202 200 194 191 190 191 197 202 205 213 211 203 203 207 206 205 197 193 196 190 179 183 189 186 190 194 187 181 180 173 172 185 190 191 196 200 202 201 196 176 158 158 150 146 150 144 127 113 102 91 85 80 75 79 79 72 68 67 165 228 244 241 234 231 233
205 207 207 205 204 205 206 207 207 205 204 204 203 203 201 201 201 201 206 206 204 204 199 195 194 192 197 200 204 212 214 212 215 216 214 214 211 207 204 197 188 188 194 194 196 199 197 189 183 179 181 190 193 194 196 197 197 194 174 140 130 137 136 135 146 151 136 120 108 94 87 80 70 70 67 53 48 57 65 119 247 251 244 237 230
207 209 210 209 207 207 207 209 209 206 205 204 203 204 202 203 203 203 208 208 204 206 205 202 200 197 199 202 204 210 214 220 224 224 223 222 221 218 209 201 198 200 202 203 206 208 204 199 189 182 186 190 192 194 194 192 190 186 169 138 124 129 133 136 151 155 136 121 110 96 89 79 68 69 61 39 26 57 62 56 32 259 249 242 231
209 209 210 211 210 208 208 209 210 207 205 204 202 203 204 204 204 204 207 207 203 206 210 208 207 206 204 205 208 212 216 224 230 229 227 227 228 226 219 210 209 212 212 210 215 216 210 213 206 190 189 190 192 193 189 186 180 171 164 146 133 137 144 149 159 159 144 131 120 92 83 77 69 71 63 43 40 67 77 53 34 337 263 247 237
209 211 211 212 212 210 208 208 209 208 206 205 201 202 205 205 205 205 206 205 202 206 212 212 212 212 210 209 211 215 219 224 230 231 227 227 229 229 227 222 219 219 217 214 221 219 212 219 217 200 194 192 195 195 187 182 176 163 155 150 147 154 168 180 179 173 160 152 178 195 53 54 64 70 64 52 51 56 59 49 21 341 307 276 253
208 211 212 212 212 211 211 209 209 209 208 207 204 204 207 209 209 208 206 205 204 207 212 215 215 215 215 213 211 214 220 225 228 228 226 225 226 228 228 227 226 223 219 217 220 219 213 218 220 212 204 197 196 197 190 184 182 175 161 154 157 168 186 204 210 212 202 187 205 246 270 310 350 51 59 58 56 54 52 45 20 342 309 293 278
209 211 212 213 213 212 212 212 211 211 210 209 207 207 210 212 213 213 211 209 208 209 213 217 218 217 218 217 212 211 220 227 226 224 224 224 224 226 227 228 229 229 228 225 224 222 216 214 214 214 211 201 196 197 195 192 191 190 178 164 164 178 197 212 221 225 222 218 229 258 267 268 279 314 28 57 58 56 57 53 38 19 343 305 287
209 210 211 212 213 213 214 214 213 213 212 211 210 211 212 213 215 216 216 215 214 213 215 218 219 220 220 219 215 211 217 225 224 222 223 224 223 224 226 227 228 231 233 232 230 228 222 214 212 213 210 203 196 194 196 196 195 194 189 178 174 184 204 220 228 228 227 231 238 255 268 263 262 283 322 18 40 44 56 57 41 27 9 327 293
208 209 211 212 213 214 215 215 214 214 214 213 212 212 213 213 214 215 216 219 219 218 218 218 218 220 220 221 218 212 213 219 222 220 221 224 223 223 226 227 227 227 230 232 231 231 228 221 216 216 214 209 201 194 193 194 193 194 195 194 190 196 213 227 236 236 235 242 248 255 263 264 260 270 296 324 347 4 35 49 32 20 12 348 303
209 211 213 213 213 214 215 215 216 216 215 214 213 213 213 214 214 213 214 217 219 219 219 218 219 220 220 221 221 217 213 216 220 219 219 223 225 225 227 228 227 225 226 233 232 230 229 225 222 219 216 216 212 204 199 197 196 198 200 203 204 208 222 226 226 231 237 244 251 255 259 260 256 260 276 303 321 325 355 27 17 9 8 1 326
210 212 214 214 215 215 215 215 217 217 217 215 214 213 214 215 216 216 216 217 218 218 218 219 221 223 223 223 224 222 218 217 219 219 218 222 227 228 229 229 228 225 226 232 233 234 232 228 228 223 217 218 218 214 209 208 208 205 202 203 210 222 244 236 224 224 233 240 246 251 253 252 250 253 262 283 304 301 308 350 2 2 7 12 13
210 211 212 214 215 215 216 216 217 218 218 216 215 214 215 216 218 219 219 218 218 218 219 220 221 223 224 225 226 226 224 221 221 221 219 222 227 231 231 230 229 225 226 229 230 234 233 230 230 226 221 221 223 223 219 219 219 215 210 210 217 230 249 253 238 231 236 243 246 247 247 246 246 250 254 266 282 282 281 303 331 345 360 18 40
209 210 212 214 215 216 216 216 217 218 219 218 216 215 216 217 218 219 220 220 220 220 220 221 222 223 224 225 227 227 226 225 226 226 225 225 228 232 233 231 229 226 226 226 226 229 230 230 230 226 223 222 224 228 225 225 225 223 221 223 225 231 244 253 246 236 236 243 250 251 249 244 243 247 250 257 264 266 270 282 301 314 331 357 18
210 211 212 214 215 215 216 216 217 218 220 220 217 216 216 218 219 220 221 221 220 220 221 222 223 224 225 225 226 227 227 227 228 228 227 225 227 231 232 231 229 227 226 225 224 226 228 229 230 226 225 225 225 228 226 226 227 225 226 230 228 230 239 243 236 229 230 238 249 259 258 249 249 254 256 261 266 266 269 275 284 289 290 305 318
210 210 211 214 215 215 215 217 218 219 220 221 219 217 216 218 220 221 223 222 221 221 221 222 222 223 225 226 227 228 228 229 229 229 226 224 226 229 229 229 229 228 227 225 224 225 228 230 231 228 227 228 226 227 228 228 228 226 224 225 225 229 238 241 233 228 231 238 248 260 261 254 255 260 263 270 274 270 269 273 279 282 276 280 294